| time (UTC) | temp F | wind direction | speed MPH | gust MPH | rain 1hr in | rain 24hr in | rain mn in | humidity % | barometer mb |
| 20260902103129 | 87 | 328 | 2.0 | 8.0 | 0.00 | 0.00 | 0.00 | 57 | 1018.9 |
| 20260902103019 | 86 | 327 | 4.0 | 8.0 | 0.00 | 0.00 | 0.00 | 57 | 1018.8 |
| 20260902102131 | 86 | 8 | 4.0 | 12.0 | 0.00 | 0.00 | 0.00 | 57 | 1019.1 |
| 20260902101542 | 86 | 18 | 3.0 | 9.0 | 0.00 | 0.00 | 0.00 | 61 | 1019.0 |
| 20260902101138 | 86 | 325 | 3.0 | 9.0 | 0.00 | 0.00 | 0.00 | 63 | 1019.1 |
| 20260902100128 | 85 | 335 | 5.0 | 11.0 | 0.00 | 0.00 | 0.00 | 60 | 1019.2 |
| 20260902100030 | 85 | 315 | 6.0 | 11.0 | 0.00 | 0.00 | 0.00 | 60 | 1019.1 |
| 20260902095156 | 85 | 332 | 4.0 | 10.0 | 0.00 | 0.00 | 0.00 | 62 | 1019.3 |
| 20260902094530 | 84 | 309 | 4.0 | 9.0 | 0.00 | 0.00 | 0.00 | 61 | 1019.2 |
| 20260902094146 | 85 | 315 | 5.0 | 9.0 | 0.00 | 0.00 | 0.00 | 63 | 1019.3 |
| 20260902093143 | 84 | 319 | 4.0 | 9.0 | 0.00 | 0.00 | 0.00 | 62 | 1019.3 |
| 20260902093026 | 84 | 354 | 3.0 | 10.0 | 0.00 | 0.00 | 0.00 | 63 | 1019.3 |
| 20260902092127 | 83 | 333 | 7.0 | 11.0 | 0.00 | 0.00 | 0.00 | 64 | 1019.3 |
| 20260902091527 | 83 | 336 | 5.0 | 11.0 | 0.00 | 0.00 | 0.00 | 65 | 1019.2 |
| 20260902091139 | 83 | 305 | 8.0 | 11.0 | 0.00 | 0.00 | 0.00 | 63 | 1019.3 |
| 20260902090125 | 83 | 326 | 6.0 | 11.0 | 0.00 | 0.00 | 0.00 | 65 | 1019.2 |
| 20260902090018 | 82 | 314 | 5.0 | 9.0 | 0.00 | 0.00 | 0.00 | 65 | 1019.2 |
| 20260902085131 | 82 | 301 | 5.0 | 10.0 | 0.00 | 0.00 | 0.00 | 66 | 1019.3 |
| 20260902084546 | 81 | 295 | 6.0 | 9.0 | 0.00 | 0.00 | 0.00 | 65 | 1019.2 |
| 20260902084134 | 82 | 304 | 3.0 | 9.0 | 0.00 | 0.00 | 0.00 | 66 | 1019.2 |
| 20260902083127 | 81 | 303 | 4.0 | 9.0 | 0.00 | 0.00 | 0.00 | 71 | 1019.2 |
| 20260902083009 | 80 | 303 | 5.0 | 9.0 | 0.00 | 0.00 | 0.00 | 69 | 1019.1 |
| 20260902082150 | 80 | 309 | 5.0 | 9.0 | 0.00 | 0.00 | 0.00 | 72 | 1019.1 |
| 20260902081505 | 79 | 288 | 6.0 | 9.0 | 0.00 | 0.00 | 0.00 | 72 | 1018.9 |
| 20260902081134 | 79 | 316 | 4.0 | 9.0 | 0.00 | 0.00 | 0.00 | 73 | 1019.0 |
| 20260902080125 | 79 | 298 | 5.0 | 8.0 | 0.00 | 0.00 | 0.00 | 73 | 1019.0 |
| 20260902080005 | 78 | 302 | 3.0 | 6.0 | 0.00 | 0.00 | 0.00 | 73 | 1018.8 |
| 20260902075152 | 78 | 312 | 2.0 | 8.0 | 0.00 | 0.00 | 0.00 | 75 | 1018.9 |
| 20260902074504 | 76 | 311 | 5.0 | 9.0 | 0.00 | 0.00 | 0.00 | 74 | 1018.7 |
| 20260902074142 | 77 | 299 | 5.0 | 9.0 | 0.00 | 0.00 | 0.00 | 74 | 1018.9 |
| 20260902073132 | 77 | 297 | 6.0 | 11.0 | 0.00 | 0.00 | 0.00 | 74 | 1018.8 |
| 20260902073023 | 76 | 268 | 5.0 | 11.0 | 0.00 | 0.00 | 0.00 | 74 | 1018.6 |
| 20260902072128 | 76 | 286 | 6.0 | 9.0 | 0.00 | 0.00 | 0.00 | 75 | 1018.7 |
| 20260902071516 | 75 | 308 | 4.0 | 9.0 | 0.00 | 0.00 | 0.00 | 76 | 1018.5 |
| 20260902071150 | 75 | 304 | 6.0 | 9.0 | 0.00 | 0.00 | 0.00 | 75 | 1018.6 |
| 20260902070131 | 75 | 306 | 5.0 | 10.0 | 0.00 | 0.00 | 0.00 | 76 | 1018.6 |
| 20260902070015 | 74 | 297 | 6.0 | 10.0 | 0.00 | 0.00 | 0.00 | 76 | 1018.4 |
| 20260902065140 | 75 | 293 | 4.0 | 8.0 | 0.00 | 0.00 | 0.00 | 77 | 1018.5 |
| 20260902064511 | 74 | 257 | 5.0 | 8.0 | 0.00 | 0.00 | 0.00 | 78 | 1018.3 |
| 20260902064128 | 74 | 291 | 6.0 | 8.0 | 0.00 | 0.00 | 0.00 | 78 | 1018.5 |
| 20260902063140 | 74 | 288 | 3.0 | 7.0 | 0.00 | 0.00 | 0.00 | 79 | 1018.4 |
| 20260902063008 | 73 | 304 | 3.0 | 7.0 | 0.00 | 0.00 | 0.00 | 79 | 1018.3 |
| 20260902062129 | 73 | 305 | 3.0 | 7.0 | 0.00 | 0.00 | 0.00 | 81 | 1018.4 |
| 20260902061504 | 72 | 297 | 3.0 | 7.0 | 0.00 | 0.00 | 0.00 | 83 | 1018.3 |
| 20260902061131 | 72 | 304 | 2.0 | 5.0 | 0.00 | 0.00 | 0.00 | 84 | 1018.4 |
| 20260902060155 | 71 | 278 | 4.0 | 5.0 | 0.00 | 0.00 | 0.00 | 86 | 1018.5 |
| 20260902060026 | 70 | 278 | 4.0 | 5.0 | 0.00 | 0.00 | 0.00 | 86 | 1018.3 |
| 20260902055136 | 70 | 263 | 3.0 | 5.0 | 0.00 | 0.00 | 0.00 | 87 | 1018.5 |
| 20260902054523 | 69 | 238 | 3.0 | 5.0 | 0.00 | 0.00 | 0.00 | 87 | 1018.3 |
| 20260902054129 | 70 | 240 | 3.0 | 5.0 | 0.00 | 0.00 | 0.00 | 87 | 1018.5 |
| 20260902053126 | 69 | 256 | 2.0 | 4.0 | 0.00 | 0.00 | 0.00 | 88 | 1018.4 |
| 20260902053018 | 68 | 228 | 2.0 | 4.0 | 0.00 | 0.00 | 0.00 | 88 | 1018.3 |
| 20260902052155 | 68 | 250 | 2.0 | 4.0 | 0.00 | 0.00 | 0.00 | 89 | 1018.3 |
| 20260902051512 | 67 | 257 | 1.0 | 3.0 | 0.00 | 0.00 | 0.00 | 89 | 1018.1 |
| 20260902051137 | 68 | 245 | 2.0 | 3.0 | 0.00 | 0.00 | 0.00 | 89 | 1018.2 |
| 20260902050133 | 68 | 250 | 2.0 | 4.0 | 0.00 | 0.00 | 0.00 | 89 | 1018.1 |
| 20260902050009 | 67 | 233 | 2.0 | 4.0 | 0.00 | 0.00 | 0.00 | 89 | 1018.0 |
| 20260902045134 | 68 | 249 | 2.0 | 3.0 | 0.00 | 0.00 | 0.00 | 89 | 1018.0 |
| 20260902044504 | 67 | 248 | 2.0 | 4.0 | 0.00 | 0.00 | 0.00 | 88 | 1018.0 |
| 20260902044136 | 68 | 246 | 1.0 | 4.0 | 0.00 | 0.00 | 0.00 | 88 | 1018.1 |
| 20260902043156 | 68 | 226 | 1.0 | 3.0 | 0.00 | 0.00 | 0.00 | 88 | 1018.1 |
| 20260902043030 | 68 | 221 | 1.0 | 3.0 | 0.00 | 0.00 | 0.00 | 88 | 1018.0 |
| 20260902042159 | 69 | 195 | 0.0 | 2.0 | 0.00 | 0.00 | 0.00 | 88 | 1018.0 |
| 20260902041523 | 68 | 229 | 0.0 | 3.0 | 0.00 | 0.00 | 0.00 | 88 | 1017.9 |
| 20260902041137 | 69 | 231 | 1.0 | 3.0 | 0.00 | 0.00 | 0.00 | 89 | 1017.9 |
| 20260902040130 | 69 | 227 | 0.0 | 2.0 | 0.00 | 0.00 | 0.00 | 89 | 1018.0 |
| 20260902040023 | 69 | 229 | 0.0 | 2.0 | 0.00 | 0.00 | 0.00 | 88 | 1017.9 |
| 20260902035130 | 69 | 216 | 1.0 | 2.0 | 0.00 | 0.00 | 0.00 | 89 | 1017.9 |
| 20260902034516 | 69 | 224 | 0.0 | 2.0 | 0.00 | 0.00 | 0.00 | 88 | 1017.8 |
| 20260902034129 | 70 | 216 | 1.0 | 2.0 | 0.00 | 0.00 | 0.00 | 89 | 1017.9 |
| 20260902033144 | 70 | 217 | 0.0 | 2.0 | 0.00 | 0.00 | 0.00 | 89 | 1018.0 |
| 20260902033012 | 69 | 219 | 0.0 | 3.0 | 0.00 | 0.00 | 0.00 | 89 | 1018.0 |
| 20260902032157 | 70 | 235 | 2.0 | 3.0 | 0.00 | 0.00 | 0.00 | 90 | 1018.0 |
| 20260902031534 | 70 | 257 | 0.0 | 1.0 | 0.00 | 0.00 | 0.00 | 89 | 1017.9 |
| 20260902031142 | 70 | 262 | 1.0 | 1.0 | 0.00 | 0.00 | 0.00 | 90 | 1018.0 |
| 20260902030154 | 70 | 242 | 0.0 | 3.0 | 0.00 | 0.00 | 0.00 | 88 | 1018.0 |
| 20260902030030 | 70 | 242 | 0.0 | 3.0 | 0.00 | 0.00 | 0.00 | 88 | 1017.9 |
| 20260902025135 | 71 | 217 | 0.0 | 4.0 | 0.00 | 0.00 | 0.00 | 89 | 1017.9 |
| 20260902024529 | 70 | 195 | 1.0 | 3.0 | 0.00 | 0.00 | 0.00 | 89 | 1017.8 |
| 20260902024131 | 70 | 227 | 1.0 | 3.0 | 0.00 | 0.00 | 0.00 | 89 | 1017.9 |
| 20260902023132 | 70 | 229 | 1.0 | 2.0 | 0.00 | 0.00 | 0.00 | 89 | 1017.9 |
| 20260902023025 | 70 | 226 | 2.0 | 2.0 | 0.00 | 0.00 | 0.00 | 89 | 1017.8 |
| 20260902022202 | 71 | 240 | 2.0 | 2.0 | 0.00 | 0.00 | 0.00 | 88 | 1017.9 |
| 20260902021522 | 71 | 234 | 0.0 | 2.0 | 0.00 | 0.00 | 0.00 | 88 | 1017.7 |
| 20260902021152 | 71 | 225 | 0.0 | 2.0 | 0.00 | 0.00 | 0.00 | 89 | 1017.9 |
| 20260902020136 | 71 | 205 | 0.0 | 2.0 | 0.00 | 0.00 | 0.00 | 89 | 1017.9 |
| 20260902020022 | 71 | 200 | 0.0 | 2.0 | 0.00 | 0.00 | 0.00 | 88 | 1017.8 |
| 20260902015142 | 72 | 232 | 1.0 | 2.0 | 0.00 | 0.00 | 0.00 | 89 | 1017.8 |
| 20260902014540 | 71 | 234 | 0.0 | 1.0 | 0.00 | 0.00 | 0.00 | 88 | 1017.7 |
| 20260902014137 | 72 | 236 | 0.0 | 1.0 | 0.00 | 0.00 | 0.00 | 90 | 1017.9 |
| 20260902013139 | 73 | 236 | 1.0 | 1.0 | 0.00 | 0.00 | 0.00 | 89 | 1017.8 |
| 20260902013031 | 72 | 236 | 1.0 | 1.0 | 0.00 | 0.00 | 0.00 | 89 | 1017.7 |
| 20260902012132 | 72 | 229 | 0.0 | 2.0 | 0.00 | 0.00 | 0.00 | 89 | 1017.9 |
| 20260902011530 | 72 | 229 | 1.0 | 2.0 | 0.00 | 0.00 | 0.00 | 89 | 1017.7 |
| 20260902011134 | 72 | 223 | 0.0 | 1.0 | 0.00 | 0.00 | 0.00 | 89 | 1017.8 |
| 20260902010138 | 73 | 210 | 0.0 | 2.0 | 0.00 | 0.00 | 0.00 | 90 | 1017.8 |
| 20260902010027 | 72 | 209 | 0.0 | 3.0 | 0.00 | 0.00 | 0.00 | 89 | 1017.6 |
| 20260902005137 | 72 | 167 | 0.0 | 2.0 | 0.00 | 0.00 | 0.00 | 87 | 1017.8 |
| 20260902004528 | 72 | 13 | 0.0 | 0.0 | 0.00 | 0.00 | 0.00 | 85 | 1017.6 |
| 20260902004153 | 73 | 14 | 0.0 | 0.0 | 0.00 | 0.00 | 0.00 | 87 | 1017.8 |
| 20260902003146 | 73 | 13 | 0.0 | 0.0 | 0.00 | 0.00 | 0.00 | 87 | 1017.8 |
| 20260902003029 | 72 | 14 | 0.0 | 0.0 | 0.00 | 0.00 | 0.00 | 87 | 1017.7 |
| 20260902002127 | 73 | 13 | 0.0 | 0.0 | 0.00 | 0.00 | 0.00 | 86 | 1017.9 |
| 20260902001518 | 73 | 13 | 0.0 | 0.0 | 0.00 | 0.00 | 0.00 | 87 | 1017.6 |
| 20260902001129 | 74 | 13 | 0.0 | 0.0 | 0.00 | 0.00 | 0.00 | 88 | 1017.8 |
| 20260902000150 | 74 | 14 | 0.0 | 0.0 | 0.00 | 0.00 | 0.00 | 87 | 1017.9 |
| 20260902000015 | 74 | 13 | 0.0 | 0.0 | 0.00 | 0.00 | 0.00 | 87 | 1017.7 |
| 20260901235141 | 75 | 13 | 0.0 | 0.0 | 0.00 | 0.00 | 0.00 | 88 | 1017.8 |
| 20260901234509 | 74 | 14 | 0.0 | 0.0 | 0.00 | 0.00 | 0.00 | 88 | 1017.6 |
| 20260901234138 | 75 | 13 | 0.0 | 0.0 | 0.00 | 0.00 | 0.00 | 88 | 1017.7 |
| 20260901233144 | 75 | 14 | 0.0 | 0.0 | 0.00 | 0.00 | 0.00 | 88 | 1017.9 |
| 20260901233011 | 74 | 13 | 0.0 | 0.0 | 0.00 | 0.00 | 0.00 | 87 | 1017.7 |
| 20260901232127 | 75 | 14 | 0.0 | 0.0 | 0.00 | 0.00 | 0.00 | 87 | 1017.9 |
| 20260901231504 | 74 | 13 | 0.0 | 0.0 | 0.00 | 0.00 | 0.00 | 86 | 1017.8 |
| 20260901231130 | 75 | 13 | 0.0 | 0.0 | 0.00 | 0.00 | 0.00 | 86 | 1018.0 |
| 20260901230201 | 75 | 13 | 0.0 | 0.0 | 0.00 | 0.00 | 0.00 | 86 | 1018.0 |
| 20260901230027 | 75 | 13 | 0.0 | 0.0 | 0.00 | 0.00 | 0.00 | 85 | 1017.8 |
| 20260901225133 | 76 | 14 | 0.0 | 0.0 | 0.00 | 0.00 | 0.00 | 86 | 1017.9 |
| 20260901224523 | 75 | 14 | 0.0 | 0.0 | 0.00 | 0.00 | 0.00 | 85 | 1017.8 |
| 20260901224150 | 76 | 13 | 0.0 | 0.0 | 0.00 | 0.00 | 0.00 | 86 | 1018.0 |
| 20260901223130 | 76 | 44 | 0.0 | 0.0 | 0.00 | 0.00 | 0.00 | 86 | 1018.0 |
| 20260901223022 | 76 | 44 | 0.0 | 0.0 | 0.00 | 0.00 | 0.00 | 86 | 1017.8 |
| 20260901222203 | 76 | 44 | 0.0 | 0.0 | 0.00 | 0.00 | 0.00 | 85 | 1017.9 |
| 20260901221512 | 76 | 46 | 0.0 | 1.0 | 0.00 | 0.00 | 0.00 | 84 | 1017.7 |
| 20260901221138 | 76 | 52 | 0.0 | 1.0 | 0.00 | 0.00 | 0.00 | 85 | 1017.9 |
| 20260901220147 | 77 | 52 | 0.0 | 0.0 | 0.00 | 0.00 | 0.00 | 85 | 1017.9 |
| 20260901220012 | 76 | 52 | 0.0 | 0.0 | 0.00 | 0.00 | 0.00 | 85 | 1017.8 |
| 20260901215131 | 76 | 52 | 0.0 | 0.0 | 0.00 | 0.00 | 0.00 | 85 | 1017.8 |
| 20260901214504 | 76 | 52 | 0.0 | 0.0 | 0.00 | 0.00 | 0.00 | 83 | 1017.7 |
| 20260901214135 | 77 | 52 | 0.0 | 1.0 | 0.00 | 0.00 | 0.00 | 84 | 1017.8 |
| 20260901213147 | 77 | 52 | 0.0 | 1.0 | 0.00 | 0.00 | 0.00 | 82 | 1017.8 |
| 20260901213044 | 76 | 52 | 0.0 | 1.0 | 0.00 | 0.00 | 0.00 | 82 | 1017.6 |
| 20260901212154 | 77 | 52 | 0.0 | 1.0 | 0.00 | 0.00 | 0.00 | 82 | 1017.7 |
| 20260901211523 | 76 | 87 | 0.0 | 1.0 | 0.00 | 0.00 | 0.00 | 82 | 1017.6 |
| 20260901211127 | 77 | 87 | 0.0 | 1.0 | 0.00 | 0.00 | 0.00 | 81 | 1017.6 |
| 20260901210131 | 77 | 26 | 0.0 | 2.0 | 0.00 | 0.00 | 0.00 | 81 | 1017.6 |
| 20260901210019 | 76 | 26 | 0.0 | 2.0 | 0.00 | 0.00 | 0.00 | 81 | 1017.5 |
| 20260901205130 | 77 | 20 | 1.0 | 2.0 | 0.00 | 0.00 | 0.00 | 82 | 1017.8 |
| 20260901204518 | 76 | 5 | 0.0 | 3.0 | 0.00 | 0.00 | 0.00 | 80 | 1017.7 |
| 20260901204133 | 77 | 5 | 2.0 | 3.0 | 0.00 | 0.00 | 0.00 | 80 | 1017.8 |
| 20260901203128 | 76 | 40 | 0.0 | 0.0 | 0.00 | 0.00 | 0.00 | 80 | 1017.7 |
| 20260901203011 | 76 | 40 | 0.0 | 1.0 | 0.00 | 0.00 | 0.00 | 80 | 1017.5 |
| 20260901202131 | 77 | 40 | 0.0 | 2.0 | 0.00 | 0.00 | 0.00 | 79 | 1017.4 |
| 20260901201508 | 77 | 49 | 0.0 | 0.0 | 0.00 | 0.00 | 0.00 | 79 | 1017.4 |
| 20260901201139 | 77 | 50 | 0.0 | 0.0 | 0.00 | 0.00 | 0.00 | 79 | 1017.5 |
| 20260901200136 | 78 | 51 | 0.0 | 1.0 | 0.00 | 0.00 | 0.00 | 78 | 1017.5 |
| 20260901200031 | 77 | 51 | 0.0 | 1.0 | 0.00 | 0.00 | 0.00 | 78 | 1017.4 |
| 20260901195139 | 78 | 50 | 0.0 | 1.0 | 0.00 | 0.00 | 0.00 | 78 | 1017.5 |
| 20260901194529 | 77 | 91 | 0.0 | 0.0 | 0.00 | 0.00 | 0.00 | 77 | 1017.4 |
| 20260901194210 | 78 | 91 | 0.0 | 0.0 | 0.00 | 0.00 | 0.00 | 77 | 1017.5 |
| 20260901193156 | 78 | 91 | 0.0 | 0.0 | 0.00 | 0.00 | 0.00 | 77 | 1017.5 |
| 20260901193026 | 78 | 91 | 0.0 | 0.0 | 0.00 | 0.00 | 0.00 | 76 | 1017.4 |
| 20260901192138 | 78 | 91 | 0.0 | 2.0 | 0.00 | 0.00 | 0.00 | 77 | 1017.5 |
| 20260901191520 | 78 | 93 | 0.0 | 1.0 | 0.00 | 0.00 | 0.00 | 76 | 1017.3 |
| 20260901191151 | 79 | 93 | 0.0 | 1.0 | 0.00 | 0.00 | 0.00 | 76 | 1017.4 |
| 20260901190154 | 79 | 94 | 0.0 | 0.0 | 0.00 | 0.00 | 0.00 | 75 | 1017.2 |
| 20260901190018 | 78 | 93 | 0.0 | 0.0 | 0.00 | 0.00 | 0.00 | 75 | 1017.1 |
| 20260901185133 | 79 | 93 | 0.0 | 1.0 | 0.00 | 0.00 | 0.00 | 75 | 1017.2 |
| 20260901184542 | 79 | 94 | 0.0 | 3.0 | 0.00 | 0.00 | 0.00 | 74 | 1016.9 |
| 20260901184133 | 80 | 86 | 1.0 | 3.0 | 0.00 | 0.00 | 0.00 | 74 | 1016.9 |
| 20260901183142 | 80 | 84 | 2.0 | 4.0 | 0.00 | 0.00 | 0.00 | 74 | 1017.0 |
| 20260901183034 | 79 | 89 | 3.0 | 4.0 | 0.00 | 0.00 | 0.00 | 73 | 1016.9 |
| 20260901182125 | 79 | 84 | 2.0 | 3.0 | 0.00 | 0.00 | 0.00 | 73 | 1017.0 |
| 20260901181533 | 79 | 88 | 2.0 | 5.0 | 0.00 | 0.00 | 0.00 | 72 | 1016.8 |
| 20260901181131 | 80 | 94 | 3.0 | 6.0 | 0.00 | 0.00 | 0.00 | 72 | 1016.9 |
| 20260901180130 | 80 | 90 | 4.0 | 7.0 | 0.00 | 0.00 | 0.00 | 71 | 1016.8 |
| 20260901180026 | 80 | 98 | 5.0 | 7.0 | 0.00 | 0.00 | 0.00 | 71 | 1016.6 |
| 20260901175134 | 80 | 86 | 4.0 | 6.0 | 0.00 | 0.00 | 0.00 | 71 | 1016.8 |
| 20260901174526 | 80 | 92 | 4.0 | 7.0 | 0.00 | 0.00 | 0.00 | 70 | 1016.6 |
| 20260901174135 | 81 | 91 | 4.0 | 7.0 | 0.00 | 0.00 | 0.00 | 70 | 1016.7 |
| 20260901173141 | 81 | 88 | 6.0 | 9.0 | 0.00 | 0.00 | 0.00 | 69 | 1016.7 |
| 20260901173021 | 80 | 102 | 6.0 | 8.0 | 0.00 | 0.00 | 0.00 | 69 | 1016.6 |
| 20260901172130 | 81 | 79 | 6.0 | 8.0 | 0.00 | 0.00 | 0.00 | 69 | 1016.7 |
| 20260901171516 | 81 | 87 | 6.0 | 10.0 | 0.00 | 0.00 | 0.00 | 68 | 1016.6 |
| 20260901171150 | 81 | 91 | 6.0 | 10.0 | 0.00 | 0.00 | 0.00 | 68 | 1016.7 |
| 20260901170213 | 82 | 93 | 7.0 | 10.0 | 0.00 | 0.00 | 0.00 | 67 | 1016.7 |
| 20260901170012 | 81 | 98 | 8.0 | 9.0 | 0.00 | 0.00 | 0.00 | 66 | 1016.6 |
| 20260901165140 | 82 | 89 | 8.0 | 11.0 | 0.00 | 0.00 | 0.00 | 66 | 1016.7 |
| 20260901164509 | 82 | 89 | 7.0 | 12.0 | 0.00 | 0.00 | 0.00 | 65 | 1016.7 |
| 20260901164125 | 83 | 82 | 7.0 | 12.0 | 0.00 | 0.00 | 0.00 | 66 | 1016.8 |
| 20260901163156 | 83 | 96 | 8.0 | 11.0 | 0.00 | 0.00 | 0.00 | 65 | 1016.9 |
| 20260901163012 | 83 | 89 | 7.0 | 13.0 | 0.00 | 0.00 | 0.00 | 66 | 1016.8 |
| 20260901162137 | 83 | 85 | 8.0 | 13.0 | 0.00 | 0.00 | 0.00 | 66 | 1016.8 |
| 20260901161503 | 83 | 81 | 8.0 | 11.0 | 0.00 | 0.00 | 0.00 | 64 | 1016.9 |
| 20260901161126 | 84 | 84 | 7.0 | 10.0 | 0.00 | 0.00 | 0.00 | 65 | 1016.9 |
| 20260901160137 | 84 | 89 | 9.0 | 11.0 | 0.00 | 0.00 | 0.00 | 63 | 1016.9 |
| 20260901160025 | 83 | 91 | 7.0 | 11.0 | 0.00 | 0.00 | 0.00 | 64 | 1016.9 |
| 20260901155128 | 84 | 93 | 8.0 | 14.0 | 0.00 | 0.00 | 0.00 | 63 | 1016.8 |
| 20260901154519 | 83 | 79 | 10.0 | 14.0 | 0.00 | 0.00 | 0.00 | 64 | 1017.0 |
| 20260901154128 | 84 | 82 | 9.0 | 14.0 | 0.00 | 0.00 | 0.00 | 63 | 1016.9 |
| 20260901153133 | 84 | 88 | 6.0 | 15.0 | 0.00 | 0.00 | 0.00 | 61 | 1016.9 |
| 20260901153015 | 83 | 101 | 6.0 | 15.0 | 0.00 | 0.00 | 0.00 | 58 | 1017.0 |
| 20260901152143 | 84 | 44 | 8.0 | 14.0 | 0.00 | 0.00 | 0.00 | 62 | 1016.9 |
| 20260901151514 | 84 | 94 | 6.0 | 13.0 | 0.00 | 0.00 | 0.00 | 64 | 1016.9 |
| 20260901151132 | 84 | 31 | 8.0 | 13.0 | 0.00 | 0.00 | 0.00 | 63 | 1017.0 |
| 20260901150130 | 84 | 75 | 10.0 | 16.0 | 0.00 | 0.00 | 0.00 | 65 | 1017.0 |
| 20260901150012 | 84 | 94 | 7.0 | 16.0 | 0.00 | 0.00 | 0.00 | 63 | 1016.9 |
| 20260901145131 | 84 | 81 | 8.0 | 14.0 | 0.00 | 0.00 | 0.00 | 64 | 1017.0 |
| 20260901144504 | 83 | 69 | 7.0 | 18.0 | 0.00 | 0.00 | 0.00 | 64 | 1016.9 |
| 20260901144132 | 84 | 93 | 11.0 | 18.0 | 0.00 | 0.00 | 0.00 | 64 | 1016.9 |
| 20260901143152 | 84 | 49 | 10.0 | 17.0 | 0.00 | 0.00 | 0.00 | 65 | 1017.0 |
| 20260901143027 | 84 | 91 | 11.0 | 17.0 | 0.00 | 0.00 | 0.00 | 63 | 1017.0 |
| 20260901142141 | 85 | 32 | 7.0 | 15.0 | 0.00 | 0.00 | 0.00 | 65 | 1017.0 |
| 20260901141534 | 84 | 81 | 7.0 | 17.0 | 0.00 | 0.00 | 0.00 | 62 | 1017.1 |
| 20260901141126 | 84 | 53 | 7.0 | 17.0 | 0.00 | 0.00 | 0.00 | 65 | 1017.1 |
| 20260901140155 | 84 | 56 | 9.0 | 16.0 | 0.00 | 0.00 | 0.00 | 63 | 1017.1 |
| 20260901140020 | 84 | 72 | 10.0 | 17.0 | 0.00 | 0.00 | 0.00 | 63 | 1017.1 |
| 20260901135128 | 84 | 91 | 9.0 | 20.0 | 0.00 | 0.00 | 0.00 | 66 | 1017.0 |
| 20260901134516 | 84 | 79 | 7.0 | 16.0 | 0.00 | 0.00 | 0.00 | 65 | 1017.1 |
| 20260901134130 | 84 | 60 | 11.0 | 16.0 | 0.00 | 0.00 | 0.00 | 66 | 1017.1 |
| 20260901133129 | 84 | 49 | 8.0 | 20.0 | 0.00 | 0.00 | 0.00 | 67 | 1017.2 |
| 20260901133013 | 83 | 81 | 10.0 | 20.0 | 0.00 | 0.00 | 0.00 | 66 | 1017.1 |
| 20260901132131 | 84 | 94 | 12.0 | 18.0 | 0.00 | 0.00 | 0.00 | 66 | 1017.2 |
| 20260901131508 | 83 | 91 | 12.0 | 20.0 | 0.00 | 0.00 | 0.00 | 66 | 1017.2 |
| 20260901131133 | 84 | 39 | 13.0 | 20.0 | 0.00 | 0.00 | 0.00 | 67 | 1017.2 |
| 20260901130140 | 84 | 105 | 11.0 | 20.0 | 0.00 | 0.00 | 0.00 | 68 | 1017.3 |
| 20260901130028 | 83 | 97 | 11.0 | 20.0 | 0.00 | 0.00 | 0.00 | 68 | 1017.3 |
| 20260901125136 | 84 | 68 | 9.0 | 20.0 | 0.00 | 0.00 | 0.00 | 69 | 1017.3 |
| 20260901124527 | 83 | 94 | 14.0 | 20.0 | 0.00 | 0.00 | 0.00 | 66 | 1017.2 |
| 20260901124148 | 84 | 63 | 10.0 | 18.0 | 0.00 | 0.00 | 0.00 | 69 | 1017.3 |
| 20260901123130 | 84 | 44 | 10.0 | 22.0 | 0.00 | 0.00 | 0.00 | 69 | 1017.3 |
| 20260901123033 | 83 | 34 | 12.0 | 22.0 | 0.00 | 0.00 | 0.00 | 68 | 1017.2 |
| 20260901122131 | 84 | 76 | 15.0 | 20.0 | 0.00 | 0.00 | 0.00 | 68 | 1017.4 |
| 20260901121519 | 84 | 82 | 15.0 | 20.0 | 0.00 | 0.00 | 0.00 | 68 | 1017.5 |
| 20260901121132 | 85 | 83 | 11.0 | 18.0 | 0.00 | 0.00 | 0.00 | 68 | 1017.5 |
| 20260901120130 | 85 | 75 | 11.0 | 18.0 | 0.00 | 0.00 | 0.00 | 68 | 1017.5 |
| 20260901120016 | 84 | 88 | 12.0 | 18.0 | 0.00 | 0.00 | 0.00 | 66 | 1017.5 |
| 20260901115138 | 84 | 86 | 11.0 | 18.0 | 0.00 | 0.00 | 0.00 | 69 | 1017.6 |
| 20260901114517 | 84 | 110 | 10.0 | 18.0 | 0.00 | 0.00 | 0.00 | 69 | 1017.5 |
| 20260901114153 | 84 | 88 | 12.0 | 18.0 | 0.00 | 0.00 | 0.00 | 69 | 1017.6 |
| 20260901113131 | 84 | 85 | 13.0 | 16.0 | 0.00 | 0.00 | 0.00 | 70 | 1017.6 |
| 20260901113030 | 83 | 104 | 12.0 | 16.0 | 0.00 | 0.00 | 0.00 | 70 | 1017.4 |
| 20260901112136 | 84 | 82 | 12.0 | 18.0 | 0.00 | 0.00 | 0.00 | 71 | 1017.5 |
| 20260901111530 | 83 | 84 | 12.0 | 18.0 | 0.00 | 0.00 | 0.00 | 70 | 1017.4 |
| 20260901111129 | 84 | 86 | 13.0 | 18.0 | 0.00 | 0.00 | 0.00 | 71 | 1017.5 |
| 20260901110127 | 84 | 85 | 12.0 | 18.0 | 0.00 | 0.00 | 0.00 | 70 | 1017.5 |
| 20260901110026 | 83 | 83 | 11.0 | 17.0 | 0.00 | 0.00 | 0.00 | 71 | 1017.4 |
| 20260901105156 | 84 | 97 | 12.0 | 17.0 | 0.00 | 0.00 | 0.00 | 71 | 1017.4 |
| 20260901104520 | 83 | 94 | 11.0 | 18.0 | 0.00 | 0.00 | 0.00 | 71 | 1017.4 |
| 20260901104131 | 84 | 86 | 10.0 | 18.0 | 0.00 | 0.00 | 0.00 | 70 | 1017.5 |